Time,TemperatureF,DewpointF,PressureIn,WindDirection,WindDirectionDegrees,WindSpeedMPH,WindSpeedGustMPH,Humidity,HourlyPrecipIn,Conditions,Clouds,dailyrainin,SoftwareType,DateUTC
2013-04-03 00:01:00,52.4,51.3,29.94,North,359,1.0,1.0,96,0.22,,,0.00,WeatherCatV1.13B119,2013-04-03 05:01:00,
2013-04-03 00:06:00,52.8,52.0,29.94,SSE,163,1.0,1.0,97,0.22,,,0.02,WeatherCatV1.13B119,2013-04-03 05:06:00,
2013-04-03 00:11:00,53.0,52.2,29.96,SSW,204,0.0,1.0,97,0.13,,,0.03,WeatherCatV1.13B119,2013-04-03 05:11:00,
2013-04-03 00:16:00,53.2,52.4,29.95,SE,140,0.0,1.0,97,0.10,,,0.04,WeatherCatV1.13B119,2013-04-03 05:16:00,
2013-04-03 00:21:00,53.2,52.4,29.94,SE,140,0.0,0.0,97,0.15,,,0.05,WeatherCatV1.13B119,2013-04-03 05:21:00,
2013-04-03 00:26:00,53.2,52.4,29.93,SE,145,0.0,1.0,97,0.21,,,0.07,WeatherCatV1.13B119,2013-04-03 05:26:00,
2013-04-03 00:31:00,53.2,52.4,29.93,SW,219,0.0,0.0,97,0.23,,,0.09,WeatherCatV1.13B119,2013-04-03 05:31:00,
2013-04-03 00:36:00,53.3,52.5,29.93,SW,234,0.0,0.0,97,0.27,,,0.11,WeatherCatV1.13B119,2013-04-03 05:36:00,
2013-04-03 00:41:00,53.4,52.6,29.92,West,267,0.0,0.0,97,0.21,,,0.13,WeatherCatV1.13B119,2013-04-03 05:41:00,
2013-04-03 00:46:00,53.4,52.6,29.91,WSW,257,0.0,1.0,97,0.31,,,0.15,WeatherCatV1.13B119,2013-04-03 05:46:00,
2013-04-03 00:51:00,53.6,52.8,29.90,SE,125,0.0,1.0,97,0.45,,,0.18,WeatherCatV1.13B119,2013-04-03 05:51:00,
2013-04-03 00:56:00,53.9,53.3,29.89,ESE,105,3.0,3.0,98,0.31,,,0.21,WeatherCatV1.13B119,2013-04-03 05:56:00,
2013-04-03 01:01:00,54.5,53.9,29.90,SW,224,0.0,5.0,98,0.22,,,0.23,WeatherCatV1.13B119,2013-04-03 06:01:00,
2013-04-03 01:06:00,54.9,54.3,29.90,SSE,168,1.0,1.0,98,0.14,,,0.24,WeatherCatV1.13B119,2013-04-03 06:06:00,
2013-04-03 01:11:00,55.4,54.8,29.91,SE,138,0.0,3.0,98,0.12,,,0.25,WeatherCatV1.13B119,2013-04-03 06:11:00,
2013-04-03 01:16:00,55.4,54.8,29.92,NNE,26,0.0,3.0,98,0.10,,,0.26,WeatherCatV1.13B119,2013-04-03 06:16:00,
2013-04-03 01:21:00,55.1,54.0,29.92,NW,306,0.0,0.0,96,0.10,,,0.27,WeatherCatV1.13B119,2013-04-03 06:21:00,
2013-04-03 01:26:00,54.9,54.1,29.90,NW,306,0.0,0.0,97,0.13,,,0.28,WeatherCatV1.13B119,2013-04-03 06:26:00,
2013-04-03 01:31:00,54.9,54.1,29.89,North,4,0.0,1.0,97,0.16,,,0.29,WeatherCatV1.13B119,2013-04-03 06:31:00,
2013-04-03 01:36:00,54.9,54.1,29.88,NNE,22,0.0,3.0,97,0.08,,,0.29,WeatherCatV1.13B119,2013-04-03 06:36:00,
2013-04-03 01:41:00,54.8,54.0,29.90,North,8,1.0,3.0,97,0.05,,,0.29,WeatherCatV1.13B119,2013-04-03 06:41:00,
2013-04-03 01:46:00,54.3,53.2,29.91,NW,311,1.0,4.0,96,0.00,,,0.29,WeatherCatV1.13B119,2013-04-03 06:46:00,
2013-04-03 01:51:00,54.1,53.0,29.90,ESE,102,1.0,3.0,96,0.00,,,0.29,WeatherCatV1.13B119,2013-04-03 06:51:00,
2013-04-03 01:56:00,53.9,52.8,29.89,SE,125,0.0,1.0,96,0.00,,,0.29,WeatherCatV1.13B119,2013-04-03 06:56:00,
2013-04-03 02:01:00,53.9,52.8,29.90,NE,55,0.0,2.0,96,0.00,,,0.29,WeatherCatV1.13B119,2013-04-03 07:01:00,
2013-04-03 02:06:00,54.0,53.2,29.87,NW,307,2.0,2.0,97,0.00,,,0.29,WeatherCatV1.13B119,2013-04-03 07:06:00,
2013-04-03 02:11:00,54.1,53.3,29.89,WNW,284,0.0,1.0,97,0.00,,,0.29,WeatherCatV1.13B119,2013-04-03 07:11:00,
2013-04-03 02:16:00,54.3,53.5,29.89,WNW,286,0.0,1.0,97,0.00,,,0.29,WeatherCatV1.13B119,2013-04-03 07:16:00,
2013-04-03 02:21:00,54.7,53.9,29.87,ESE,120,0.0,3.0,97,0.00,,,0.29,WeatherCatV1.13B119,2013-04-03 07:21:00,
2013-04-03 02:26:00,54.9,54.1,29.86,SW,232,0.0,1.0,97,0.00,,,0.29,WeatherCatV1.13B119,2013-04-03 07:26:00,
2013-04-03 02:31:00,55.1,54.5,29.85,SSE,153,1.0,1.0,98,0.00,,,0.29,WeatherCatV1.13B119,2013-04-03 07:31:00,
2013-04-03 02:36:00,55.3,54.5,29.85,ESE,117,0.0,0.0,97,0.00,,,0.29,WeatherCatV1.13B119,2013-04-03 07:36:00,
2013-04-03 02:41:00,55.6,55.0,29.84,West,262,0.0,1.0,98,0.00,,,0.29,WeatherCatV1.13B119,2013-04-03 07:41:00,
2013-04-03 02:46:00,55.7,54.9,29.83,East,92,0.0,3.0,97,0.00,,,0.29,WeatherCatV1.13B119,2013-04-03 07:46:00,
2013-04-03 02:51:00,55.9,55.1,29.82,SSW,203,1.0,2.0,97,0.00,,,0.29,WeatherCatV1.13B119,2013-04-03 07:51:00,
2013-04-03 02:56:00,56.1,55.5,29.81,NE,49,0.0,2.0,98,0.00,,,0.29,WeatherCatV1.13B119,2013-04-03 07:56:00,
2013-04-03 03:01:00,56.2,55.4,29.81,South,189,0.0,3.0,97,0.00,,,0.29,WeatherCatV1.13B119,2013-04-03 08:01:00,
2013-04-03 03:06:00,56.2,55.4,29.82,SE,135,0.0,1.0,97,0.00,,,0.29,WeatherCatV1.13B119,2013-04-03 08:06:00,
2013-04-03 03:11:00,56.2,55.1,29.82,ENE,60,0.0,2.0,96,0.00,,,0.29,WeatherCatV1.13B119,2013-04-03 08:11:00,
2013-04-03 03:16:00,56.2,55.1,29.82,SSW,211,1.0,1.0,96,0.00,,,0.29,WeatherCatV1.13B119,2013-04-03 08:16:00,
2013-04-03 03:21:00,56.2,55.1,29.82,NE,55,3.0,3.0,96,0.00,,,0.29,WeatherCatV1.13B119,2013-04-03 08:21:00,
2013-04-03 03:26:00,56.1,55.0,29.82,West,268,0.0,1.0,96,0.00,,,0.29,WeatherCatV1.13B119,2013-04-03 08:26:00,
2013-04-03 03:31:00,56.0,54.9,29.82,WNW,293,0.0,0.0,96,0.00,,,0.29,WeatherCatV1.13B119,2013-04-03 08:31:00,
2013-04-03 03:36:00,55.8,54.7,29.83,NNE,25,0.0,2.0,96,0.00,,,0.29,WeatherCatV1.13B119,2013-04-03 08:36:00,
2013-04-03 03:41:00,55.7,54.6,29.84,West,281,2.0,2.0,96,0.00,,,0.29,WeatherCatV1.13B119,2013-04-03 08:41:00,
2013-04-03 03:46:00,55.5,54.1,29.84,ESE,112,0.0,3.0,95,0.00,,,0.29,WeatherCatV1.13B119,2013-04-03 08:46:00,
2013-04-03 03:51:00,55.3,53.9,29.84,NW,305,1.0,1.0,95,0.00,,,0.29,WeatherCatV1.13B119,2013-04-03 08:51:00,
2013-04-03 03:56:00,55.0,53.6,29.85,West,261,0.0,1.0,95,0.00,,,0.29,WeatherCatV1.13B119,2013-04-03 08:56:00,
2013-04-03 04:01:00,54.9,53.5,29.86,WNW,297,0.0,0.0,95,0.00,,,0.29,WeatherCatV1.13B119,2013-04-03 09:01:00,
2013-04-03 04:06:00,54.7,53.6,29.86,NE,34,0.0,0.0,96,0.00,,,0.29,WeatherCatV1.13B119,2013-04-03 09:06:00,
2013-04-03 04:11:00,54.5,53.4,29.86,NNE,23,0.0,0.0,96,0.00,,,0.29,WeatherCatV1.13B119,2013-04-03 09:11:00,
2013-04-03 04:16:00,54.4,53.3,29.87,WNW,297,0.0,1.0,96,0.00,,,0.29,WeatherCatV1.13B119,2013-04-03 09:16:00,
2013-04-03 04:21:00,54.3,53.2,29.87,NNW,331,0.0,2.0,96,0.00,,,0.29,WeatherCatV1.13B119,2013-04-03 09:21:00,
2013-04-03 04:26:00,54.4,53.3,29.88,NW,314,1.0,2.0,96,0.00,,,0.29,WeatherCatV1.13B119,2013-04-03 09:26:00,
2013-04-03 04:31:00,54.5,53.7,29.88,WNW,300,0.0,1.0,97,0.00,,,0.29,WeatherCatV1.13B119,2013-04-03 09:31:00,
2013-04-03 04:36:00,54.5,53.7,29.88,WSW,239,0.0,0.0,97,0.00,,,0.29,WeatherCatV1.13B119,2013-04-03 09:36:00,
2013-04-03 04:41:00,54.5,53.7,29.89,NW,309,0.0,2.0,97,0.00,,,0.29,WeatherCatV1.13B119,2013-04-03 09:41:00,
2013-04-03 04:46:00,54.6,53.5,29.89,North,1,1.0,2.0,96,0.00,,,0.29,WeatherCatV1.13B119,2013-04-03 09:46:00,
2013-04-03 04:51:00,54.5,53.4,29.90,North,352,0.0,3.0,96,0.00,,,0.29,WeatherCatV1.13B119,2013-04-03 09:51:00,
2013-04-03 04:56:00,54.4,53.0,29.90,North,11,4.0,4.0,95,0.00,,,0.29,WeatherCatV1.13B119,2013-04-03 09:56:00,
2013-04-03 05:01:00,54.3,52.9,29.90,NNW,345,2.0,2.0,95,0.00,,,0.29,WeatherCatV1.13B119,2013-04-03 10:01:00,
2013-04-03 05:06:00,54.1,52.7,29.90,NNW,336,0.0,2.0,95,0.00,,,0.29,WeatherCatV1.13B119,2013-04-03 10:06:00,
2013-04-03 05:11:00,54.1,53.0,29.90,North,359,0.0,2.0,96,0.00,,,0.29,WeatherCatV1.13B119,2013-04-03 10:11:00,
2013-04-03 05:16:00,54.0,52.9,29.90,NNE,13,0.0,2.0,96,0.00,,,0.29,WeatherCatV1.13B119,2013-04-03 10:16:00,
2013-04-03 05:21:00,54.0,52.9,29.89,NNE,30,0.0,0.0,96,0.00,,,0.29,WeatherCatV1.13B119,2013-04-03 10:21:00,
2013-04-03 05:26:00,53.9,52.8,29.89,NW,325,0.0,2.0,96,0.00,,,0.29,WeatherCatV1.13B119,2013-04-03 10:26:00,
2013-04-03 05:31:00,53.9,52.8,29.90,NNW,344,0.0,0.0,96,0.00,,,0.29,WeatherCatV1.13B119,2013-04-03 10:31:00,
2013-04-03 05:36:00,53.9,52.8,29.90,SW,236,0.0,1.0,96,0.00,,,0.29,WeatherCatV1.13B119,2013-04-03 10:36:00,
2013-04-03 05:41:00,53.9,52.8,29.90,West,278,1.0,3.0,96,0.00,,,0.29,WeatherCatV1.13B119,2013-04-03 10:41:00,
2013-04-03 05:46:00,53.8,52.7,29.90,WNW,300,1.0,1.0,96,0.00,,,0.29,WeatherCatV1.13B119,2013-04-03 10:46:00,
2013-04-03 05:51:00,53.7,52.6,29.91,NNW,338,0.0,3.0,96,0.00,,,0.29,WeatherCatV1.13B119,2013-04-03 10:51:00,
2013-04-03 05:56:00,53.7,52.6,29.91,NNE,28,0.0,0.0,96,0.00,,,0.29,WeatherCatV1.13B119,2013-04-03 10:56:00,
2013-04-03 06:01:00,53.6,52.5,29.91,West,267,0.0,0.0,96,0.00,,,0.29,WeatherCatV1.13B119,2013-04-03 11:01:00,
2013-04-03 06:06:00,53.6,52.5,29.91,WSW,250,0.0,1.0,96,0.00,,,0.29,WeatherCatV1.13B119,2013-04-03 11:06:00,
2013-04-03 06:11:00,53.5,52.4,29.91,WSW,250,0.0,1.0,96,0.00,,,0.29,WeatherCatV1.13B119,2013-04-03 11:11:00,
2013-04-03 06:16:00,53.4,52.3,29.91,WSW,250,0.0,0.0,96,0.00,,,0.29,WeatherCatV1.13B119,2013-04-03 11:16:00,
2013-04-03 06:21:00,53.2,52.1,29.92,WSW,250,0.0,0.0,96,0.00,,,0.29,WeatherCatV1.13B119,2013-04-03 11:21:00,
2013-04-03 06:26:00,53.0,51.9,29.92,WSW,256,0.0,0.0,96,0.00,,,0.29,WeatherCatV1.13B119,2013-04-03 11:26:00,
2013-04-03 06:32:00,52.9,52.1,29.92,WNW,288,0.0,1.0,97,0.00,,,0.29,WeatherCatV1.13B119,2013-04-03 11:32:00,
2013-04-03 06:37:00,52.9,52.1,29.92,WNW,288,0.0,0.0,97,0.00,,,0.29,WeatherCatV1.13B119,2013-04-03 11:37:00,
2013-04-03 06:42:00,53.0,52.2,29.92,West,271,0.0,0.0,97,0.00,,,0.29,WeatherCatV1.13B119,2013-04-03 11:42:00,
2013-04-03 06:47:00,53.2,52.4,29.93,WNW,288,1.0,2.0,97,0.00,,,0.29,WeatherCatV1.13B119,2013-04-03 11:47:00,
2013-04-03 06:52:00,53.4,52.6,29.93,WNW,286,1.0,1.0,97,0.00,,,0.29,WeatherCatV1.13B119,2013-04-03 11:52:00,
2013-04-03 06:57:00,53.3,52.2,29.93,WNW,295,7.0,11.0,96,0.00,,,0.29,WeatherCatV1.13B119,2013-04-03 11:57:00,
2013-04-03 07:02:00,53.0,51.6,29.94,NW,305,1.0,6.0,95,0.00,,,0.29,WeatherCatV1.13B119,2013-04-03 12:02:00,
2013-04-03 07:07:00,52.8,51.4,29.94,NNE,15,3.0,3.0,95,0.00,,,0.29,WeatherCatV1.13B119,2013-04-03 12:07:00,
2013-04-03 07:12:00,52.6,51.2,29.94,WSW,242,0.0,2.0,95,0.00,,,0.29,WeatherCatV1.13B119,2013-04-03 12:12:00,
2013-04-03 07:17:00,52.6,51.2,29.95,WNW,295,1.0,2.0,95,0.00,,,0.29,WeatherCatV1.13B119,2013-04-03 12:17:00,
2013-04-03 07:21:00,52.4,51.0,29.95,West,262,1.0,5.0,95,0.00,,,0.29,WeatherCatV1.13B119,2013-04-03 12:21:00,
2013-04-03 07:27:00,52.2,50.8,29.95,WSW,257,0.0,3.0,95,0.00,,,0.29,WeatherCatV1.13B119,2013-04-03 12:27:00,
2013-04-03 07:31:00,52.0,50.6,29.95,WNW,289,1.0,2.0,95,0.00,,,0.29,WeatherCatV1.13B119,2013-04-03 12:31:00,
2013-04-03 07:36:00,51.9,50.5,29.96,WNW,302,1.0,4.0,95,0.00,,,0.29,WeatherCatV1.13B119,2013-04-03 12:36:00,
2013-04-03 07:41:00,51.7,50.0,29.97,NW,304,1.0,3.0,94,0.00,,,0.29,WeatherCatV1.13B119,2013-04-03 12:41:00,
2013-04-03 07:46:00,51.6,49.9,29.97,WSW,256,1.0,1.0,94,0.00,,,0.29,WeatherCatV1.13B119,2013-04-03 12:46:00,
2013-04-03 07:51:00,51.5,49.8,29.97,WNW,297,1.0,2.0,94,0.00,,,0.29,WeatherCatV1.13B119,2013-04-03 12:51:00,
2013-04-03 07:56:00,51.4,50.0,29.97,NW,322,0.0,2.0,95,0.00,,,0.29,WeatherCatV1.13B119,2013-04-03 12:56:00,
2013-04-03 08:01:00,51.4,50.0,29.97,WNW,299,0.0,2.0,95,0.00,,,0.29,WeatherCatV1.13B119,2013-04-03 13:01:00,
2013-04-03 08:06:00,51.4,50.0,29.97,NNW,330,0.0,0.0,95,0.00,,,0.29,WeatherCatV1.13B119,2013-04-03 13:06:00,
2013-04-03 08:12:00,51.4,50.0,29.97,North,359,0.0,2.0,95,0.00,,,0.29,WeatherCatV1.13B119,2013-04-03 13:12:00,
2013-04-03 08:17:00,51.5,50.4,29.98,ENE,75,0.0,0.0,96,0.00,,,0.29,WeatherCatV1.13B119,2013-04-03 13:17:00,
2013-04-03 08:22:00,51.6,50.5,29.98,ENE,75,0.0,0.0,96,0.00,,,0.29,WeatherCatV1.13B119,2013-04-03 13:22:00,
2013-04-03 08:27:00,51.7,50.6,29.98,ENE,75,0.0,0.0,96,0.00,,,0.29,WeatherCatV1.13B119,2013-04-03 13:27:00,
2013-04-03 08:32:00,51.9,50.8,29.99,NNW,329,1.0,3.0,96,0.00,,,0.29,WeatherCatV1.13B119,2013-04-03 13:32:00,
2013-04-03 08:37:00,52.1,51.0,29.99,North,353,0.0,1.0,96,0.00,,,0.29,WeatherCatV1.13B119,2013-04-03 13:37:00,
2013-04-03 08:42:00,52.2,51.1,29.99,NNE,31,0.0,2.0,96,0.00,,,0.29,WeatherCatV1.13B119,2013-04-03 13:42:00,
2013-04-03 08:46:00,52.3,50.9,29.99,WNW,283,2.0,5.0,95,0.00,,,0.29,WeatherCatV1.13B119,2013-04-03 13:46:00,
2013-04-03 08:52:00,52.4,51.0,29.99,North,4,1.0,2.0,95,0.00,,,0.29,WeatherCatV1.13B119,2013-04-03 13:52:00,
2013-04-03 08:57:00,52.5,51.4,29.98,ENE,62,0.0,0.0,96,0.00,,,0.29,WeatherCatV1.13B119,2013-04-03 13:57:00,
2013-04-03 09:02:00,52.6,51.5,29.99,WNW,283,2.0,3.0,96,0.00,,,0.29,WeatherCatV1.13B119,2013-04-03 14:02:00,
2013-04-03 09:07:00,52.7,51.6,29.99,NW,314,2.0,4.0,96,0.00,,,0.29,WeatherCatV1.13B119,2013-04-03 14:07:00,
2013-04-03 09:12:00,52.7,51.3,30.00,ENE,62,1.0,3.0,95,0.00,,,0.29,WeatherCatV1.13B119,2013-04-03 14:12:00,
2013-04-03 09:17:00,52.7,51.3,30.00,West,278,0.0,1.0,95,0.00,,,0.29,WeatherCatV1.13B119,2013-04-03 14:17:00,
2013-04-03 09:22:00,52.7,51.3,30.00,ENE,60,2.0,3.0,95,0.00,,,0.29,WeatherCatV1.13B119,2013-04-03 14:22:00,
2013-04-03 09:27:00,52.7,51.3,30.00,NE,34,0.0,2.0,95,0.00,,,0.29,WeatherCatV1.13B119,2013-04-03 14:27:00,
2013-04-03 09:32:00,52.7,51.6,30.00,East,87,1.0,1.0,96,0.00,,,0.29,WeatherCatV1.13B119,2013-04-03 14:32:00,
2013-04-03 09:36:00,52.8,51.4,29.99,NNW,347,0.0,1.0,95,0.00,,,0.29,WeatherCatV1.13B119,2013-04-03 14:36:00,
2013-04-03 09:41:00,52.8,51.4,29.99,NW,323,0.0,5.0,95,0.00,,,0.29,WeatherCatV1.13B119,2013-04-03 14:41:00,
2013-04-03 09:46:00,52.9,51.5,30.00,NNW,347,0.0,3.0,95,0.00,,,0.29,WeatherCatV1.13B119,2013-04-03 14:46:00,
2013-04-03 09:52:00,52.9,51.5,30.02,West,266,4.0,4.0,95,0.00,,,0.29,WeatherCatV1.13B119,2013-04-03 14:52:00,
2013-04-03 09:57:00,53.0,51.3,30.05,NW,311,2.0,3.0,94,0.00,,,0.29,WeatherCatV1.13B119,2013-04-03 14:57:00,
2013-04-03 10:02:00,53.0,51.3,30.06,North,352,1.0,2.0,94,0.00,,,0.29,WeatherCatV1.13B119,2013-04-03 15:02:00,
2013-04-03 10:07:00,53.1,51.7,30.06,NW,304,3.0,4.0,95,0.00,,,0.29,WeatherCatV1.13B119,2013-04-03 15:07:00,
2013-04-03 10:11:00,52.8,51.1,30.05,NNW,335,1.0,3.0,94,0.00,,,0.29,WeatherCatV1.13B119,2013-04-03 15:11:00,
2013-04-03 10:16:00,52.4,50.7,30.04,NNW,344,2.0,3.0,94,0.00,,,0.29,WeatherCatV1.13B119,2013-04-03 15:16:00,
2013-04-03 10:21:00,52.0,50.6,30.04,North,7,1.0,2.0,95,0.00,,,0.29,WeatherCatV1.13B119,2013-04-03 15:21:00,
2013-04-03 10:26:00,51.8,50.4,30.03,NNE,27,2.0,2.0,95,0.00,,,0.30,WeatherCatV1.13B119,2013-04-03 15:26:00,
2013-04-03 10:31:00,51.7,50.6,30.03,West,266,2.0,2.0,96,0.00,,,0.30,WeatherCatV1.13B119,2013-04-03 15:31:00,
2013-04-03 10:36:00,51.6,50.5,30.03,WNW,294,0.0,1.0,96,0.00,,,0.30,WeatherCatV1.13B119,2013-04-03 15:36:00,
2013-04-03 10:41:00,51.5,50.4,30.03,NNW,338,0.0,2.0,96,0.00,,,0.30,WeatherCatV1.13B119,2013-04-03 15:41:00,
2013-04-03 10:46:00,51.3,49.9,30.02,ENE,67,0.0,1.0,95,0.00,,,0.30,WeatherCatV1.13B119,2013-04-03 15:46:00,
2013-04-03 10:51:00,51.4,50.3,29.99,ESE,103,0.0,2.0,96,0.00,,,0.31,WeatherCatV1.13B119,2013-04-03 15:51:00,
2013-04-03 10:56:00,51.4,50.3,29.98,ESE,121,0.0,3.0,96,0.11,,,0.32,WeatherCatV1.13B119,2013-04-03 15:56:00,
2013-04-03 11:01:00,51.4,50.3,30.00,ESE,102,0.0,0.0,96,0.09,,,0.32,WeatherCatV1.13B119,2013-04-03 16:01:00,
2013-04-03 11:06:00,51.5,50.4,29.99,SE,125,0.0,0.0,96,0.06,,,0.33,WeatherCatV1.13B119,2013-04-03 16:06:00,
2013-04-03 11:11:00,51.4,50.6,30.00,NW,315,0.0,1.0,97,0.06,,,0.33,WeatherCatV1.13B119,2013-04-03 16:11:00,
2013-04-03 11:16:00,51.5,50.7,30.00,North,354,0.0,0.0,97,0.08,,,0.34,WeatherCatV1.13B119,2013-04-03 16:16:00,
2013-04-03 11:21:00,51.5,50.7,30.01,WNW,303,0.0,0.0,97,0.06,,,0.34,WeatherCatV1.13B119,2013-04-03 16:21:00,
2013-04-03 11:26:00,51.4,50.3,30.00,NNW,330,0.0,2.0,96,0.04,,,0.34,WeatherCatV1.13B119,2013-04-03 16:26:00,
2013-04-03 11:31:00,51.3,50.2,30.00,NW,309,0.0,2.0,96,0.00,,,0.34,WeatherCatV1.13B119,2013-04-03 16:31:00,
2013-04-03 11:36:00,51.4,50.6,30.00,WNW,288,1.0,2.0,97,0.00,,,0.34,WeatherCatV1.13B119,2013-04-03 16:36:00,
2013-04-03 11:41:00,51.3,50.2,30.01,NE,41,0.0,1.0,96,0.00,,,0.34,WeatherCatV1.13B119,2013-04-03 16:41:00,
2013-04-03 11:46:00,51.2,50.1,30.01,WNW,303,1.0,3.0,96,0.00,,,0.34,WeatherCatV1.13B119,2013-04-03 16:46:00,
2013-04-03 11:51:00,51.1,50.0,30.01,NW,307,0.0,4.0,96,0.00,,,0.34,WeatherCatV1.13B119,2013-04-03 16:51:00,
2013-04-03 11:56:00,51.1,50.0,30.01,NNE,12,0.0,0.0,96,0.00,,,0.34,WeatherCatV1.13B119,2013-04-03 16:56:00,
2013-04-03 12:01:00,51.1,50.0,30.01,West,259,0.0,1.0,96,0.00,,,0.34,WeatherCatV1.13B119,2013-04-03 17:01:00,
2013-04-03 12:06:00,51.2,50.4,30.01,WNW,293,2.0,2.0,97,0.00,,,0.34,WeatherCatV1.13B119,2013-04-03 17:06:00,
2013-04-03 12:11:00,51.0,49.9,30.00,WNW,289,0.0,3.0,96,0.00,,,0.34,WeatherCatV1.13B119,2013-04-03 17:11:00,
2013-04-03 12:16:00,50.8,49.7,30.00,WSW,250,0.0,1.0,96,0.00,,,0.34,WeatherCatV1.13B119,2013-04-03 17:16:00,
2013-04-03 12:21:00,50.7,49.6,30.02,NNW,328,0.0,3.0,96,0.00,,,0.34,WeatherCatV1.13B119,2013-04-03 17:21:00,
2013-04-03 12:26:00,50.6,49.5,30.03,NW,316,2.0,3.0,96,0.00,,,0.34,WeatherCatV1.13B119,2013-04-03 17:26:00,
2013-04-03 12:31:00,50.6,49.5,30.04,WNW,302,1.0,2.0,96,0.00,,,0.34,WeatherCatV1.13B119,2013-04-03 17:31:00,
2013-04-03 12:36:00,50.6,49.5,30.06,NW,314,0.0,2.0,96,0.00,,,0.34,WeatherCatV1.13B119,2013-04-03 17:36:00,
2013-04-03 12:41:00,50.6,49.5,30.06,NW,309,0.0,1.0,96,0.00,,,0.34,WeatherCatV1.13B119,2013-04-03 17:41:00,
2013-04-03 12:46:00,50.6,49.5,30.05,ESE,103,0.0,0.0,96,0.00,,,0.34,WeatherCatV1.13B119,2013-04-03 17:46:00,
2013-04-03 12:51:00,50.6,49.5,30.03,North,352,0.0,1.0,96,0.00,,,0.34,WeatherCatV1.13B119,2013-04-03 17:51:00,
2013-04-03 12:56:00,50.6,49.5,30.01,NW,304,0.0,2.0,96,0.00,,,0.34,WeatherCatV1.13B119,2013-04-03 17:56:00,
2013-04-03 13:01:00,50.8,49.7,30.01,NE,56,2.0,3.0,96,0.00,,,0.34,WeatherCatV1.13B119,2013-04-03 18:01:00,
2013-04-03 13:06:00,50.9,49.8,30.02,NW,318,1.0,3.0,96,0.00,,,0.34,WeatherCatV1.13B119,2013-04-03 18:06:00,
2013-04-03 13:11:00,51.1,50.0,30.02,SSW,204,0.0,1.0,96,0.00,,,0.34,WeatherCatV1.13B119,2013-04-03 18:11:00,
2013-04-03 13:16:00,51.1,50.0,30.03,WSW,250,0.0,0.0,96,0.00,,,0.35,WeatherCatV1.13B119,2013-04-03 18:16:00,
2013-04-03 13:21:00,51.1,50.0,30.02,ESE,104,0.0,1.0,96,0.10,,,0.36,WeatherCatV1.13B119,2013-04-03 18:21:00,
2013-04-03 13:26:00,51.1,50.0,30.00,NE,53,0.0,2.0,96,0.10,,,0.36,WeatherCatV1.13B119,2013-04-03 18:26:00,
2013-04-03 13:31:00,51.4,50.6,30.00,WNW,300,0.0,3.0,97,0.09,,,0.37,WeatherCatV1.13B119,2013-04-03 18:31:00,
2013-04-03 13:36:00,51.4,50.3,29.99,WNW,286,1.0,4.0,96,0.07,,,0.37,WeatherCatV1.13B119,2013-04-03 18:36:00,
2013-04-03 13:41:00,51.4,50.3,30.00,NNE,15,0.0,2.0,96,0.04,,,0.37,WeatherCatV1.13B119,2013-04-03 18:41:00,
2013-04-03 13:46:00,51.4,50.3,30.00,WNW,291,0.0,3.0,96,0.00,,,0.37,WeatherCatV1.13B119,2013-04-03 18:46:00,
2013-04-03 13:51:00,51.2,50.1,30.02,WNW,300,0.0,2.0,96,0.00,,,0.37,WeatherCatV1.13B119,2013-04-03 18:51:00,
2013-04-03 13:56:00,51.2,50.1,30.01,NE,43,0.0,0.0,96,0.00,,,0.37,WeatherCatV1.13B119,2013-04-03 18:56:00,
2013-04-03 14:01:00,51.2,50.1,30.01,East,100,0.0,0.0,96,0.00,,,0.37,WeatherCatV1.13B119,2013-04-03 19:01:00,
2013-04-03 14:06:00,51.3,50.2,30.03,NW,308,2.0,3.0,96,0.00,,,0.37,WeatherCatV1.13B119,2013-04-03 19:06:00,
2013-04-03 14:11:00,51.2,50.1,30.02,WNW,300,2.0,3.0,96,0.00,,,0.37,WeatherCatV1.13B119,2013-04-03 19:11:00,
2013-04-03 14:16:00,51.2,50.1,30.03,WNW,302,3.0,3.0,96,0.00,,,0.38,WeatherCatV1.13B119,2013-04-03 19:16:00,
2013-04-03 14:21:00,51.2,50.1,30.02,NW,314,0.0,1.0,96,0.00,,,0.38,WeatherCatV1.13B119,2013-04-03 19:21:00,
2013-04-03 14:26:00,51.2,50.1,30.02,East,87,0.0,1.0,96,0.00,,,0.38,WeatherCatV1.13B119,2013-04-03 19:26:00,
2013-04-03 14:31:00,51.2,50.1,30.03,WNW,287,1.0,3.0,96,0.00,,,0.38,WeatherCatV1.13B119,2013-04-03 19:31:00,
2013-04-03 14:36:00,51.2,50.1,30.02,NNW,342,0.0,0.0,96,0.00,,,0.38,WeatherCatV1.13B119,2013-04-03 19:36:00,
2013-04-03 14:41:00,51.3,50.2,30.01,NW,309,0.0,2.0,96,0.00,,,0.38,WeatherCatV1.13B119,2013-04-03 19:41:00,
2013-04-03 14:46:00,51.3,50.2,30.01,North,359,0.0,2.0,96,0.00,,,0.38,WeatherCatV1.13B119,2013-04-03 19:46:00,
2013-04-03 14:51:00,51.4,50.3,30.00,East,82,0.0,1.0,96,0.00,,,0.38,WeatherCatV1.13B119,2013-04-03 19:51:00,
2013-04-03 14:56:00,51.5,50.4,30.00,ESE,122,0.0,1.0,96,0.00,,,0.38,WeatherCatV1.13B119,2013-04-03 19:56:00,
2013-04-03 15:01:00,51.5,50.4,30.00,NNE,33,0.0,3.0,96,0.00,,,0.38,WeatherCatV1.13B119,2013-04-03 20:01:00,
2013-04-03 15:06:00,51.6,50.5,30.00,NW,305,0.0,2.0,96,0.00,,,0.38,WeatherCatV1.13B119,2013-04-03 20:06:00,
2013-04-03 15:11:00,51.6,50.5,30.01,WNW,302,1.0,2.0,96,0.00,,,0.38,WeatherCatV1.13B119,2013-04-03 20:11:00,
2013-04-03 15:16:00,51.6,50.5,30.02,NW,321,1.0,2.0,96,0.00,,,0.38,WeatherCatV1.13B119,2013-04-03 20:16:00,
2013-04-03 15:21:00,51.4,50.0,30.01,WNW,287,1.0,3.0,95,0.00,,,0.38,WeatherCatV1.13B119,2013-04-03 20:21:00,
2013-04-03 15:26:00,51.3,49.9,30.00,NNE,18,1.0,4.0,95,0.00,,,0.38,WeatherCatV1.13B119,2013-04-03 20:26:00,
2013-04-03 15:31:00,51.0,49.3,30.00,WNW,295,2.0,3.0,94,0.00,,,0.38,WeatherCatV1.13B119,2013-04-03 20:31:00,
2013-04-03 15:36:00,50.9,49.5,30.01,SW,217,1.0,1.0,95,0.00,,,0.39,WeatherCatV1.13B119,2013-04-03 20:36:00,
2013-04-03 15:41:00,50.7,49.3,30.01,WNW,290,2.0,2.0,95,0.00,,,0.39,WeatherCatV1.13B119,2013-04-03 20:41:00,
2013-04-03 15:46:00,50.5,49.1,30.01,NNW,330,0.0,2.0,95,0.08,,,0.40,WeatherCatV1.13B119,2013-04-03 20:46:00,
2013-04-03 15:51:00,50.6,49.5,30.01,NNW,343,1.0,2.0,96,0.07,,,0.40,WeatherCatV1.13B119,2013-04-03 20:51:00,
2013-04-03 15:56:00,50.5,49.1,30.02,WNW,303,2.0,2.0,95,0.04,,,0.40,WeatherCatV1.13B119,2013-04-03 20:56:00,
2013-04-03 16:01:00,50.5,49.4,30.02,NNE,33,0.0,1.0,96,0.00,,,0.40,WeatherCatV1.13B119,2013-04-03 21:01:00,
2013-04-03 16:07:00,50.4,49.3,30.01,WNW,297,1.0,4.0,96,0.00,,,0.40,WeatherCatV1.13B119,2013-04-03 21:07:00,
2013-04-03 16:12:00,50.3,49.2,30.01,NW,311,1.0,3.0,96,0.00,,,0.40,WeatherCatV1.13B119,2013-04-03 21:12:00,
2013-04-03 16:17:00,50.3,49.2,30.01,WNW,301,1.0,5.0,96,0.00,,,0.40,WeatherCatV1.13B119,2013-04-03 21:17:00,
2013-04-03 16:22:00,50.3,48.9,30.01,NW,326,0.0,4.0,95,0.00,,,0.40,WeatherCatV1.13B119,2013-04-03 21:22:00,
2013-04-03 16:27:00,50.3,48.9,30.02,NW,304,2.0,3.0,95,0.00,,,0.40,WeatherCatV1.13B119,2013-04-03 21:27:00,
2013-04-03 16:32:00,50.4,49.3,30.02,SE,129,1.0,2.0,96,0.00,,,0.40,WeatherCatV1.13B119,2013-04-03 21:32:00,
2013-04-03 16:37:00,50.3,48.9,30.02,NW,311,1.0,2.0,95,0.00,,,0.40,WeatherCatV1.13B119,2013-04-03 21:37:00,
2013-04-03 16:42:00,50.4,49.3,30.02,WNW,290,0.0,0.0,96,0.00,,,0.40,WeatherCatV1.13B119,2013-04-03 21:42:00,
2013-04-03 16:47:00,50.4,49.3,30.02,East,80,0.0,3.0,96,0.00,,,0.40,WeatherCatV1.13B119,2013-04-03 21:47:00,
2013-04-03 16:52:00,50.3,48.9,30.02,North,351,3.0,3.0,95,0.00,,,0.40,WeatherCatV1.13B119,2013-04-03 21:52:00,
2013-04-03 16:57:00,50.3,48.9,30.03,NNE,25,0.0,2.0,95,0.00,,,0.40,WeatherCatV1.13B119,2013-04-03 21:57:00,
2013-04-03 17:02:00,50.3,49.2,30.03,NNE,14,0.0,2.0,96,0.00,,,0.40,WeatherCatV1.13B119,2013-04-03 22:02:00,
2013-04-03 17:07:00,50.3,48.9,30.03,WNW,294,0.0,3.0,95,0.00,,,0.40,WeatherCatV1.13B119,2013-04-03 22:07:00,
2013-04-03 17:12:00,50.3,48.9,30.03,WNW,292,0.0,0.0,95,0.00,,,0.40,WeatherCatV1.13B119,2013-04-03 22:12:00,
2013-04-03 17:17:00,50.3,48.9,30.03,SSE,148,0.0,1.0,95,0.00,,,0.40,WeatherCatV1.13B119,2013-04-03 22:17:00,
2013-04-03 17:22:00,50.3,49.2,30.03,WNW,293,0.0,0.0,96,0.00,,,0.40,WeatherCatV1.13B119,2013-04-03 22:22:00,
2013-04-03 17:27:00,50.3,48.9,30.03,NNE,27,0.0,1.0,95,0.00,,,0.40,WeatherCatV1.13B119,2013-04-03 22:27:00,
2013-04-03 17:32:00,50.3,48.9,30.03,West,261,0.0,0.0,95,0.00,,,0.40,WeatherCatV1.13B119,2013-04-03 22:32:00,
2013-04-03 17:37:00,50.4,49.0,30.04,North,7,0.0,1.0,95,0.00,,,0.40,WeatherCatV1.13B119,2013-04-03 22:37:00,
2013-04-03 17:42:00,50.4,49.0,30.04,NNW,337,0.0,0.0,95,0.00,,,0.40,WeatherCatV1.13B119,2013-04-03 22:42:00,
2013-04-03 17:47:00,50.4,49.0,30.04,SW,236,0.0,1.0,95,0.00,,,0.40,WeatherCatV1.13B119,2013-04-03 22:47:00,
2013-04-03 17:52:00,50.4,49.0,30.05,ESE,106,0.0,1.0,95,0.00,,,0.40,WeatherCatV1.13B119,2013-04-03 22:52:00,
2013-04-03 17:57:00,50.5,49.1,30.04,NW,311,0.0,1.0,95,0.00,,,0.40,WeatherCatV1.13B119,2013-04-03 22:57:00,
2013-04-03 18:02:00,50.5,49.1,30.05,NW,325,0.0,1.0,95,0.00,,,0.40,WeatherCatV1.13B119,2013-04-03 23:02:00,
2013-04-03 18:07:00,50.5,49.1,30.05,ENE,58,0.0,2.0,95,0.00,,,0.40,WeatherCatV1.13B119,2013-04-03 23:07:00,
2013-04-03 18:12:00,50.5,48.8,30.05,NE,39,0.0,1.0,94,0.00,,,0.40,WeatherCatV1.13B119,2013-04-03 23:12:00,
2013-04-03 18:17:00,50.4,49.0,30.05,NE,56,0.0,1.0,95,0.00,,,0.40,WeatherCatV1.13B119,2013-04-03 23:17:00,
2013-04-03 18:22:00,50.4,48.7,30.05,SW,219,0.0,3.0,94,0.00,,,0.40,WeatherCatV1.13B119,2013-04-03 23:22:00,
2013-04-03 18:27:00,50.3,48.6,30.05,ENE,59,0.0,1.0,94,0.00,,,0.40,WeatherCatV1.13B119,2013-04-03 23:27:00,
2013-04-03 18:32:00,50.2,48.8,30.05,NE,44,0.0,1.0,95,0.00,,,0.40,WeatherCatV1.13B119,2013-04-03 23:32:00,
2013-04-03 18:37:00,50.1,48.7,30.05,NNW,330,0.0,1.0,95,0.00,,,0.40,WeatherCatV1.13B119,2013-04-03 23:37:00,
2013-04-03 18:42:00,50.1,48.7,30.05,NNE,24,1.0,2.0,95,0.00,,,0.40,WeatherCatV1.13B119,2013-04-03 23:42:00,
2013-04-03 18:47:00,50.0,48.6,30.05,NW,324,0.0,0.0,95,0.00,,,0.40,WeatherCatV1.13B119,2013-04-03 23:47:00,
2013-04-03 18:52:00,50.0,48.6,30.05,NNE,31,0.0,2.0,95,0.00,,,0.40,WeatherCatV1.13B119,2013-04-03 23:52:00,
2013-04-03 18:57:00,50.0,48.6,30.05,NW,309,1.0,2.0,95,0.00,,,0.40,WeatherCatV1.13B119,2013-04-03 23:57:00,
2013-04-03 19:02:00,50.0,48.6,30.05,NW,312,0.0,1.0,95,0.00,,,0.40,WeatherCatV1.13B119,2013-04-04 00:02:00,
2013-04-03 19:07:00,50.0,48.6,30.05,SSE,149,0.0,0.0,95,0.00,,,0.40,WeatherCatV1.13B119,2013-04-04 00:07:00,
2013-04-03 19:12:00,50.1,48.7,30.05,WNW,296,0.0,0.0,95,0.00,,,0.40,WeatherCatV1.13B119,2013-04-04 00:12:00,
2013-04-03 19:17:00,50.1,48.7,30.05,North,351,0.0,0.0,95,0.00,,,0.40,WeatherCatV1.13B119,2013-04-04 00:17:00,
2013-04-03 19:22:00,50.1,48.7,30.05,WNW,297,1.0,2.0,95,0.00,,,0.40,WeatherCatV1.13B119,2013-04-04 00:22:00,
2013-04-03 19:27:00,50.1,48.7,30.05,NW,307,0.0,0.0,95,0.00,,,0.40,WeatherCatV1.13B119,2013-04-04 00:27:00,
2013-04-03 19:32:00,50.1,48.7,30.06,North,354,1.0,2.0,95,0.00,,,0.40,WeatherCatV1.13B119,2013-04-04 00:32:00,
2013-04-03 19:37:00,50.0,48.3,30.06,NW,309,0.0,6.0,94,0.00,,,0.40,WeatherCatV1.13B119,2013-04-04 00:37:00,
2013-04-03 19:42:00,50.0,48.6,30.06,NNE,30,0.0,1.0,95,0.00,,,0.40,WeatherCatV1.13B119,2013-04-04 00:42:00,
2013-04-03 19:47:00,50.0,48.6,30.07,NNW,338,1.0,2.0,95,0.00,,,0.40,WeatherCatV1.13B119,2013-04-04 00:47:00,
2013-04-03 19:52:00,50.0,48.6,30.07,NW,316,0.0,0.0,95,0.00,,,0.40,WeatherCatV1.13B119,2013-04-04 00:52:00,
2013-04-03 19:57:00,50.0,48.6,30.07,NW,312,1.0,2.0,95,0.00,,,0.40,WeatherCatV1.13B119,2013-04-04 00:57:00,
2013-04-03 20:02:00,50.0,48.6,30.07,NW,307,0.0,0.0,95,0.00,,,0.40,WeatherCatV1.13B119,2013-04-04 01:02:00,
2013-04-03 20:07:00,50.0,48.3,30.07,NW,321,0.0,1.0,94,0.00,,,0.40,WeatherCatV1.13B119,2013-04-04 01:07:00,
2013-04-03 20:12:00,50.0,48.6,30.07,NW,321,0.0,0.0,95,0.00,,,0.40,WeatherCatV1.13B119,2013-04-04 01:12:00,
2013-04-03 20:17:00,49.9,48.5,30.08,NNW,338,0.0,1.0,95,0.00,,,0.40,WeatherCatV1.13B119,2013-04-04 01:17:00,
2013-04-03 20:22:00,50.0,48.6,30.08,West,270,0.0,1.0,95,0.00,,,0.40,WeatherCatV1.13B119,2013-04-04 01:22:00,
2013-04-03 20:27:00,50.0,48.6,30.08,North,353,0.0,1.0,95,0.00,,,0.40,WeatherCatV1.13B119,2013-04-04 01:27:00,
2013-04-03 20:32:00,49.9,48.5,30.08,North,8,0.0,0.0,95,0.00,,,0.40,WeatherCatV1.13B119,2013-04-04 01:32:00,
2013-04-03 20:37:00,49.9,48.5,30.08,NNW,347,0.0,1.0,95,0.00,,,0.40,WeatherCatV1.13B119,2013-04-04 01:37:00,
2013-04-03 20:42:00,49.9,48.5,30.09,NNW,333,1.0,2.0,95,0.00,,,0.40,WeatherCatV1.13B119,2013-04-04 01:42:00,
2013-04-03 20:47:00,49.9,48.5,30.09,WNW,302,0.0,1.0,95,0.00,,,0.40,WeatherCatV1.13B119,2013-04-04 01:47:00,
2013-04-03 20:52:00,49.9,48.5,30.09,NW,320,1.0,1.0,95,0.00,,,0.40,WeatherCatV1.13B119,2013-04-04 01:52:00,
2013-04-03 20:57:00,49.9,48.2,30.09,NW,321,0.0,1.0,94,0.00,,,0.40,WeatherCatV1.13B119,2013-04-04 01:57:00,
2013-04-03 21:02:00,49.9,48.5,30.09,NW,320,0.0,0.0,95,0.00,,,0.40,WeatherCatV1.13B119,2013-04-04 02:02:00,
2013-04-03 21:07:00,49.9,48.5,30.10,NW,321,0.0,0.0,95,0.00,,,0.40,WeatherCatV1.13B119,2013-04-04 02:07:00,
2013-04-03 21:12:00,49.8,48.4,30.10,North,0,0.0,1.0,95,0.00,,,0.40,WeatherCatV1.13B119,2013-04-04 02:12:00,
2013-04-03 21:17:00,49.8,48.1,30.10,NW,319,0.0,0.0,94,0.00,,,0.40,WeatherCatV1.13B119,2013-04-04 02:17:00,
2013-04-03 21:22:00,49.7,48.0,30.10,NW,317,0.0,0.0,94,0.00,,,0.40,WeatherCatV1.13B119,2013-04-04 02:22:00,
2013-04-03 21:27:00,49.6,47.7,30.11,North,0,0.0,1.0,93,0.00,,,0.40,WeatherCatV1.13B119,2013-04-04 02:27:00,
2013-04-03 21:32:00,49.5,47.6,30.11,WSW,255,0.0,1.0,93,0.00,,,0.40,WeatherCatV1.13B119,2013-04-04 02:32:00,
2013-04-03 21:37:00,49.4,47.5,30.11,NNW,333,0.0,2.0,93,0.00,,,0.40,WeatherCatV1.13B119,2013-04-04 02:37:00,
2013-04-03 21:42:00,49.3,47.4,30.11,WNW,303,0.0,1.0,93,0.00,,,0.40,WeatherCatV1.13B119,2013-04-04 02:42:00,
2013-04-03 21:47:00,49.2,47.5,30.11,NW,319,0.0,0.0,94,0.00,,,0.40,WeatherCatV1.13B119,2013-04-04 02:47:00,
2013-04-03 21:52:00,49.2,47.5,30.12,NW,316,1.0,1.0,94,0.00,,,0.40,WeatherCatV1.13B119,2013-04-04 02:52:00,
2013-04-03 21:57:00,49.0,47.6,30.12,WSW,237,0.0,1.0,95,0.00,,,0.40,WeatherCatV1.13B119,2013-04-04 02:57:00,
2013-04-03 22:02:00,48.9,47.2,30.12,WNW,295,0.0,1.0,94,0.00,,,0.40,WeatherCatV1.13B119,2013-04-04 03:02:00,
2013-04-03 22:07:00,48.9,47.5,30.12,West,264,0.0,1.0,95,0.00,,,0.40,WeatherCatV1.13B119,2013-04-04 03:07:00,
2013-04-03 22:12:00,48.8,47.2,30.12,NW,324,1.0,2.0,94,0.00,,,0.40,WeatherCatV1.13B119,2013-04-04 03:12:00,
2013-04-03 22:17:00,48.8,47.2,30.12,WNW,297,1.0,2.0,94,0.00,,,0.40,WeatherCatV1.13B119,2013-04-04 03:17:00,
2013-04-03 22:22:00,48.8,47.2,30.13,SSW,209,0.0,0.0,94,0.00,,,0.40,WeatherCatV1.13B119,2013-04-04 03:22:00,
2013-04-03 22:27:00,48.8,47.2,30.13,NW,311,0.0,1.0,94,0.00,,,0.40,WeatherCatV1.13B119,2013-04-04 03:27:00,
2013-04-03 22:32:00,48.8,47.2,30.13,NW,304,0.0,0.0,94,0.00,,,0.40,WeatherCatV1.13B119,2013-04-04 03:32:00,
2013-04-03 22:37:00,48.8,47.2,30.14,ENE,64,1.0,1.0,94,0.00,,,0.40,WeatherCatV1.13B119,2013-04-04 03:37:00,
2013-04-03 22:42:00,48.8,46.9,30.14,NW,318,1.0,3.0,93,0.00,,,0.40,WeatherCatV1.13B119,2013-04-04 03:42:00,
2013-04-03 22:47:00,48.8,46.9,30.14,ENE,76,0.0,2.0,93,0.00,,,0.40,WeatherCatV1.13B119,2013-04-04 03:47:00,
2013-04-03 22:52:00,48.7,47.0,30.14,NW,307,0.0,2.0,94,0.00,,,0.40,WeatherCatV1.13B119,2013-04-04 03:52:00,
2013-04-03 22:57:00,48.7,47.0,30.14,NW,321,0.0,2.0,94,0.00,,,0.40,WeatherCatV1.13B119,2013-04-04 03:57:00,
2013-04-03 23:00:00,48.7,47.0,30.14,North,6,1.0,1.0,94,0.00,,,0.40,WeatherCatV1.13B119,2013-04-04 04:00:00,
2013-04-03 23:05:00,48.7,47.0,30.14,North,352,0.0,0.0,94,0.00,,,0.40,WeatherCatV1.13B119,2013-04-04 04:05:00,
2013-04-03 23:06:00,48.6,47.0,30.14,North,352,0.0,1.0,94,0.00,,,0.40,WeatherCatV1.13B119,2013-04-04 04:06:00,
2013-04-03 23:11:00,48.7,47.0,30.14,North,352,0.0,0.0,94,0.00,,,0.40,WeatherCatV1.13B119,2013-04-04 04:11:00,
2013-04-03 23:16:00,48.7,47.0,30.14,NNW,347,0.0,1.0,94,0.00,,,0.40,WeatherCatV1.13B119,2013-04-04 04:16:00,
2013-04-03 23:21:00,48.7,47.0,30.14,NNW,347,0.0,0.0,94,0.00,,,0.40,WeatherCatV1.13B119,2013-04-04 04:21:00,
2013-04-03 23:26:00,48.8,47.2,30.14,NNW,347,0.0,0.0,94,0.00,,,0.40,WeatherCatV1.13B119,2013-04-04 04:26:00,
2013-04-03 23:31:00,48.9,47.2,30.14,NW,308,0.0,1.0,94,0.00,,,0.40,WeatherCatV1.13B119,2013-04-04 04:31:00,
2013-04-03 23:36:00,48.9,47.0,30.14,NW,326,1.0,1.0,93,0.00,,,0.40,WeatherCatV1.13B119,2013-04-04 04:36:00,
2013-04-03 23:41:00,48.9,47.2,30.14,NW,326,0.0,0.0,94,0.00,,,0.40,WeatherCatV1.13B119,2013-04-04 04:41:00,
2013-04-03 23:46:00,48.9,47.2,30.14,NW,305,0.0,2.0,94,0.00,,,0.40,WeatherCatV1.13B119,2013-04-04 04:46:00,
2013-04-03 23:51:00,48.9,47.2,30.14,WSW,247,1.0,1.0,94,0.00,,,0.40,WeatherCatV1.13B119,2013-04-04 04:51:00,
2013-04-03 23:56:00,48.8,47.2,30.13,WNW,302,1.0,1.0,94,0.00,,,0.40,WeatherCatV1.13B119,2013-04-04 04:56:00,